Regional Weather Roundup
Issued by NWS

Home | Current Version | Previous Version | Graphics & Text | Print | Product List | Glossary On
Versions: 1 2 3 4 5 6 7 8 9 10 11 12 13 14 15 16 17 18 19 20 21 22 23 24 25 26 27 28 29 30 31 32 33 34 35 36 37 38 39 40 41 42 43 44 45 46 47 48 49 50
000
ASUS43 KTOP 211659
RWRKS

WEATHER ROUNDUP FOR KANSAS
NATIONAL WEATHER SERVICE GOODLAND KS
1200 PM CDT THU AUG 21 2014

NOTE:  "FAIR" INDICATES FEW OR NO CLOUDS BELOW 12,000 FEET WITH NO
SIGNIFICANT WEATHER AND/OR OBSTRUCTIONS TO VISIBILITY.

KSZ001>006-013>018-027>032-041>047-211800-
NORTHWEST KANSAS

CITY           SKY/WX    TMP DP  RH WIND       PRES   REMARKS
GOODLAND       SUNNY     87  50  27 N12       30.00S
HAYS           SUNNY     91  66  43 S15G21    29.86S
HILL CITY      SUNNY     88  65  46 NE6       29.87R
RUSSELL        SUNNY     93  65  39 S16G26    29.84S HX  95
$$

KSZ061>065-074>080-084>089-211800-
SOUTHWEST KANSAS

CITY           SKY/WX    TMP DP  RH WIND       PRES   REMARKS
DODGE CITY     SUNNY     90  63  40 SW15G22   29.90F
ELKHART          N/A     85  57  38 NW10        N/A
GARDEN CITY    SUNNY     86  63  45 SW8       29.91S
GREAT BEND     SUNNY     91  66  43 S22G28    29.86F
LIBERAL        SUNNY     91  61  35 SW14      29.94S
$$

KSZ066>073-081>083-090>101-211800-
SOUTHEAST KANSAS

CITY           SKY/WX    TMP DP  RH WIND       PRES   REMARKS
CHANUTE        SUNNY     92  70  48 S16G24    29.97S HX  97
COFFEYVILLE    SUNNY     91  72  53 S18G25    29.97S HX  98
HUTCHINSON     SUNNY     93  65  39 S18       29.90S HX  95
NEWTON         SUNNY     90  64  43 SW22G29   29.94F
PARSONS        SUNNY     91  72  53 S12       29.98F HX  98
WICHITA INTL   SUNNY     92  66  42 S23G30    29.91F
WICHITA JABRA  SUNNY     90  67  46 SW18G29   29.92S
WINFIELD       SUNNY     93  70  46 S17G29    29.95F HX  99
$$

KSZ007>012-019>026-033>040-048>060-102>105-211800-
NORTHEAST KANSAS

CITY           SKY/WX    TMP DP  RH WIND       PRES   REMARKS
CONCORDIA      MOSUNNY   88  70  55 S13       29.85F
EMPORIA        SUNNY     92  68  45 S22G28    29.92S HX  96
LAWRENCE       MOSUNNY   90  70  51 SW12      29.91S HX  95
MANHATTAN      SUNNY     95  69  42 SW15G21   29.87S HX 100
OLATHE IND     MOSUNNY   90  71  53 S20G25    29.94S HX  96
OLATHE EXE     PTSUNNY   87  72  60 S13G18    29.94S
SALINA         SUNNY     93  66  40 SW20G28   29.87F HX  96
TOPEKA BILLARD MOSUNNY   92  71  50 S12       29.90S HX  98
TOPEKA FORBES  SUNNY     93  70  46 S14       29.91R HX  99
$$


USA.gov is the U.S. government's official web portal to all federal, state and local government web resources and services.